Regional Weather Roundup
Issued by NWS Charleston, SC

Current Version | Previous Version | Graphics & Text | Print | Product List | Glossary On
Versions: 1 2 3 4 5 6 7 8 9 10 11 12 13 14 15 16 17 18 19 20 21 22 23 24 25 26 27 28 29 30 31 32 33 34 35 36 37 38 39 40 41 42 43 44 45 46 47 48 49 50
227 ASUS42 KCHS 231527 RWRCHS Regional Weather Roundup National Weather Service Charleston SC 1100 AM EDT MON APR 23 2018 NOTE: "fair" indicates few or no clouds below 12,000 feet with no significant weather and/or obstructions to visibility. Not all stations are quality controlled. Use data with caution, especially dewpoint observations. SCZ027-030-031-034>040-042>050-231600- ...Southeast South Carolina... CITY SKY/WX TMP DP RH WIND PRES REMARKS N Charleston CLOUDY 66 62 87 E16G26 30.13F Waterfront Prk N/A 65 62 90 E17 29.99F Mount Pleasant FAIR 66 63 88 E12G21 30.14F Johns Island LGT RAIN 66 64 94 E18G25 30.12S Pinopolis N/A N/A N/A N/A E9G18 30.04F Moncks Corner CLOUDY 63 59 88 E9G18 30.14S Summerville CLOUDY 64 61 88 E8G22 30.14R Beaufort MCAS HVY RAIN 66 66 100 E20G26 30.05F FOG Beaufort Arpt RAIN 64 64 100 E21G30 30.05F Hilton Head Is RAIN 66 64 94 E12G24 30.05F Walterboro DRIZZLE 63 61 94 E12G20 30.11S Allendale PTSUNNY 64 63 94 SE12G18 30.07S FOG ...Southern Midlands and Pee Dee... CITY SKY/WX TMP DP RH WIND PRES REMARKS Georgetown LGT RAIN 63 63 100 E14G20 30.20F Kingstree LGT RAIN 61 61 100 E15G22 30.17F Orangeburg LGT RAIN 62 59 90 SE12G23 30.12S Barnwell DRIZZLE 63 61 94 SE10G20 30.10R Aiken LGT RAIN 59 59 100 E15G23 30.13R Manning LGT RAIN 59 57 94 SE5 30.15F Columbia RAIN 61 61 100 E17G25 30.12S FOG Sumter LGT RAIN 61 57 88 E12G22 30.13F Florence LGT RAIN 61 57 87 E13 30.21F Myrtle Beach RAIN 63 59 87 E13 30.26R N Myrtle Beach LGT RAIN 65 58 78 E13G23 30.25R $$ GAZ063-065-086>088-099>101-113>116-118-119-134>141-150-231600- ...Southeast Georgia... CITY SKY/WX TMP DP RH WIND PRES REMARKS Savannah Arpt HVY RAIN 67 66 97 SW12 30.00F FOG Hunter AAF LGT RAIN 68 66 94 S12 30.00 Fort Stewart CLOUDY 68 68 100 NE3 30.01F Statesboro CLOUDY 67 32 27 E5 30.04F Sylvania LGT RAIN 66 66 100 SE9 30.06F Claxton LGT RAIN 69 67 94 CALM 30.04S ...CSRA, Central and far Southeast Georgia... CITY SKY/WX TMP DP RH WIND PRES REMARKS Thomson LGT RAIN 61 61 97 S5 30.12R FOG Augusta-Bush LGT RAIN 64 62 93 E10 30.06F FOG Augusta-Daniel CLOUDY 64 61 90 E12G25 30.06F Swainsboro CLOUDY 68 64 88 SE9 30.05R Vidalia CLOUDY 70 68 94 SE3 30.03S Eastman CLOUDY 74 62 65 SE8 30.03S Hazlehurst CLOUDY 72 67 83 SE5 30.00F Alma LGT RAIN 74 68 81 VRB6 30.00S Waycross CLOUDY 74 71 90 S6 30.01F Jesup NOT AVBL Baxley CLOUDY 70 70 100 SE6 30.01S Brunswick CLOUDY 72 68 88 S9 30.03S Saint Simons CLOUDY 70 69 97 S7 30.03S FOG $$ SCZ027-028-034-036>038-045-046-048>050-GAZ119-141-231600- ...Lake and Supplemental Coastal Observations... STATION/POSITION TIME TEMP WIND PRES WAVE SWELL AIR SEA DIR/SP/G HT/PER HT/PER/DIR (UTC) (F) (DEG/KT/KT) (MB) (FT/S) (FT/S/D) Winyah Bay 1445 64 100/ 11 1023.0S Lake Murray 1420 58 80/ 13/ 22 1019.6R ACE Basin NERRS 1445 65 350/ 6 N/A Fort Pulaski 1500 66 65 140/ 15/ 25 1016.6 Sapelo Island 1500 70 180/ 8 1017.0 $$ ANZ835-935-AMZ111-154-330-350-352-354-370-450-454-472-231600- ...C-MAN and Buoy Observations... STATION/POSITION TIME TEMP WIND PRES WAVE SWELL AIR SEA DIR/SP/G HT/PER HT/PER/DIR (UTC) (F) (DEG/KT/KT) (MB) (FT/S) (FT/S/D) Buoy 41004 1510 68 67 110/ 23/ 31 1020.4 Buoy 41008 1450 67 65 130/ 12/ 14 1016.8S 8/ 8 7/110/ 8 Folly Beach CMAN 1500 66 90/ 21/ 24 1020.5F Capers Nearshore 1508 66 63 100/ 19/ 27 1019.9F Fripp Nearshore 1508 65 64 110/ 17/ 27 1017.5F STATION/POSITION TIME TEMP WIND PRES WAVE SWELL AIR SEA DIR/SP/G HT/PER HT/PER/DIR (UTC) (F) (DEG/KT/KT) (MB) (FT/S) (FT/S/D) 5E St. Marys GA 1430 66 N/A 7/ 8 2/ 90/11 Frying Pan Buoy 1510 69 70 120/ 23/ 31 1024.3 Buoy 41025 1510 66 71 100/ 19/ 25 1028.9 Cape Lookout NC 1500 100/ 18/ 19 1027.6R Buoy 41002 1510 69 72 100/ 19/ 25 1025.3 Buoy 41010 1510 74 75 120/ 23/ 29 1019.6 St Augustine FL 1500 69 68 240/ 11/ 15 1017.8R $$

USA.gov is the U.S. government's official web portal to all federal, state and local government web resources and services.